Regional Weather Roundup
Issued by NWS Albany, NY

Home | Current Version | Previous Version | Text Only | Print | Product List | Glossary On
Versions: 1 2 3 4 5 6 7 8 9 10 11 12 13 14 15 16 17 18 19 20 21 22 23 24 25 26 27 28 29 30 31 32 33 34 35 36 37 38 39 40 41 42 43 44 45 46 47 48 49 50
501
ASUS41 KALY 221410
RWRALY

NEW YORK STATE HOURLY WEATHER ROUNDUP
NATIONAL WEATHER SERVICE ALBANY NY
1000 AM EDT SUN OCT 22 2017

NOTE: "FAIR" INDICATES FEW OR NO CLOUDS BELOW 12,000 FEET WITH NO
SIGNIFICANT WEATHER AND/OR NO OBSTRUCTIONS TO VISIBILITY.

NYZ032-033-038>043-046>054-057>066-NYZ062>081-082-084-221500-
EAST


CITY           SKY/WX    TMP DP  RH WIND       PRES   REMARKS
ALBANY         MOSUNNY   51  46  83 CALM      30.41F
GLENS FALLS    MOSUNNY   54  47  77 S3        30.39F
POUGHKEEPSIE   CLOUDY    54  47  77 CALM      30.40F
NEWBURGH       MOSUNNY   59  48  67 CALM      30.42S
MONTGOMERY     CLOUDY    56  49  77 CALM      30.40F
WHITE PLAINS   MOSUNNY   68  45  43 SE6       30.41S
ISLIP          PTSUNNY   66  53  63 W3        30.42S
NEW YORK CITY  PTSUNNY   66  53  63 VRB3      30.41S
CENTRAL PARK   MOSUNNY   65  48  54 CALM      30.43F
$$

NYZ005>009-017-018-044>046-055-056-221500-
CENTRAL


CITY           SKY/WX    TMP DP  RH WIND       PRES   REMARKS
FULTON         SUNNY     61  49  64 SE3       30.31F
SYRACUSE       MOSUNNY   59  48  67 E5        30.32F
ROME           SUNNY     59  46  62 SE7       30.37F
ELMIRA         SUNNY     51  46  83 CALM      30.35F
BINGHAMTON     SUNNY     59  43  55 S6        30.37F
MONTICELLO     SUNNY     55  44  66 CALM      30.42F
$$

NYZ026>034-041>043-087-221500-
NORTH


CITY           SKY/WX    TMP DP  RH WIND       PRES   REMARKS
WATERTOWN      SUNNY     66  46  48 S8        30.29F
FORT DRUM      NOT AVBL
OGDENSBURG     FAIR      61  46  59 S5        30.29F
MASSENA        CLOUDY    58  49  72 NE5       30.33F
SARANAC LAKE   SUNNY     52  44  74 S3        30.36F
PLATTSBURGH    MOSUNNY   52  46  80 CALM      30.35S
$$

NYZ001>004-010>016-019>021-085-221500-
WEST


CITY           SKY/WX    TMP DP  RH WIND       PRES   REMARKS
NIAGARA FALLS  SUNNY     65  50  58 S5        30.26F
BUFFALO        PTSUNNY   63  49  60 S8        30.27F
DUNKIRK        SUNNY     67  51  56 S8        30.27S
JAMESTOWN      SUNNY     58  47  66 S9        30.31F
WELLSVILLE     SUNNY     62  44  51 S5        30.35F
ROCHESTER      PTSUNNY   62  48  60 SW7       30.29S
PENN YAN       SUNNY     61  43  51 S12       30.32F
$$

             KEY
       WCI = WIND CHILL INDEX
       VSB = VISIBILITY
       HX  = HEAT INDEX
$$




USA.gov is the U.S. government's official web portal to all federal, state and local government web resources and services.